Home > Weather > West Covina > Past weeks

Flag for USA Weather for the Past 2 Weeks in West Covina, California, USA

Now
75 °F

Sunny.


Feels Like: 78 °F
Forecast: 57 / 73 °F
Wind: 9 mph from South

Location: Fullerton Municipal Airport

Current Time: May 3, 2016 at 5:35:44 PM

Latest Report: May 3, 2016 at 4:53 PM


Visibility: 10 mi

Pressure: 29.88 "Hg

Humidity: 48%

Dew Point: 54 °F

Location of West CovinaLocation

Historic Weather in West Covina — Graph

°F

West Covina Temperature Yesterday

Maximum temperature yesterday: 81 °F (at 1:53 PM)
Minimum temperature yesterday: 57 °F (at 4:53 AM)
Average temperature yesterday: 67 °F

High & Low Weather Summary for the Past Weeks

 TemperatureHumidityPressure
High91 °F (Apr 19, 2:53 PM)90% (Apr 30, 7:04 AM)30.03 "Hg (Apr 30, 7:04 AM)
Low52 °F (Apr 26, 4:53 AM)8% (Apr 19, 4:53 PM)29.73 "Hg (Apr 27, 11:53 PM)
Average66 °F53%29.91 "Hg
* Reported Apr 18 3:53 PM — May 3 3:53 PM, West Covina, Weather by CustomWeather, © 2016

Note: Actual official high and low records may vary slightly from our data, if they occured in-between our weather recording intervals... More about our weather records

Advertising

West Covina Weather History for the Previous 24 Hours

Scroll right to see more
 ConditionsComfort  
Time TempWeatherWind HumidityBarometerVisibility
3:53 PM
Tue, May 3
78 °FSunny.7 mph42%29.88 "Hg10 mi
2:53 PM76 °FSunny.9 mph47%29.90 "Hg10 mi
1:53 PM79 °FSunny.7 mph42%29.91 "Hg10 mi
12:53 PM79 °FSunny.7 mph44%29.93 "Hg10 mi
11:53 AM79 °FSunny.No wind44%29.94 "Hg10 mi
10:53 AM75 °FSunny.No wind48%29.96 "Hg9 mi
9:53 AM71 °FSunny.No wind57%29.96 "Hg9 mi
8:53 AM65 °FSunny.3 mph70%29.96 "Hg8 mi
7:53 AM63 °FPassing clouds.No wind75%29.96 "Hg7 mi
6:53 AM60 °FLow clouds.3 mph83%29.96 "Hg6 mi
6:04 AM59 °FPartly cloudy.3 mph84%29.95 "Hg9 mi
4:53 AM59 °FClear.No wind84%29.94 "Hg10 mi
3:53 AM59 °FClear.No wind84%29.94 "Hg10 mi
2:53 AM60 °FClear.No wind80%29.94 "Hg10 mi
1:53 AM60 °FClear.No wind80%29.96 "Hg10 mi
12:53 AM61 °FClear.No wind81%29.97 "Hg10 mi
11:53 PM
Mon, May 2
62 °FClear.5 mph78%29.98 "Hg10 mi
10:53 PM63 °FClear.No wind70%29.98 "Hg10 mi
9:53 PM63 °FClear.No wind70%29.98 "Hg10 mi
8:53 PM65 °FClear.5 mph66%29.96 "Hg10 mi
7:53 PM67 °FSunny.5 mph59%29.94 "Hg10 mi
6:53 PM70 °FSunny.5 mph53%29.93 "Hg10 mi
5:53 PM73 °FSunny.5 mph46%29.92 "Hg10 mi
Weather by CustomWeather, © 2016

See weather overviewHow to use our weather pages